Ernest Shackleton — ZDLS1 — position and weather

sailwx.info

Track history (hours):
 
Tides and Currents Weather Stations Pressure Air Temp Water Temp Dewpoint Dewpoint Depression Visibility Wind Speed Wind Dir Waves Ship Positions

Oceanographic research ship Ernest Shackleton (UK/Norway)

Detailed information on ship capabilities available from University of Delaware's Ocean Information Center and ARCUS's ALIAS (Arctic Logistics Information and Support) project.

Last reported at 2016-Feb-13 13:00 UTC. Time now 2016-Feb-13 15:16 UTC.
Position S 51°36' W 057°54'.

Length 80 m; beam 17 m; draft 7.4 m.

Type: Ship. MMSI: 740357000.

AWS

Barometer 982.0 mb
Air temperature 3.7 ° C
Dewpoint 1.9 ° C

Date/timePositionNaut miles runAvg speedWind from/ knotsBaromVisibWave heightAir tempDewpointWater temp
2016-Feb-13 13:00S 51°36' W 057°54'0 0.0 982.0 3.7 1.9
2016-Feb-13 12:00S 51°36' W 057°54'4 3.7 982.5 4.1 2.3
2016-Feb-13 11:00S 51°36' W 057°48'10 9.6 983.1 5.4 3.7
2016-Feb-13 10:00S 51°42' W 057°36'7 7.1 983.7 5.4 4.0
2016-Feb-13 09:00S 51°48' W 057°30'14 7.1 985.7 5.2 3.3
2016-Feb-13 07:00S 52°00' W 057°18'7 7.4 989.8 7.7 6.3
2016-Feb-13 06:00S 52°00' W 057°06'23 7.8 991.9 7.4 4.2
2016-Feb-13 03:00S 52°18' W 056°42'7 7.0 050 / 7994.310.8 1.0 7.8 5.7 7.1
2016-Feb-13 02:00S 52°24' W 056°36'13 6.3 994.9 7.9 5.9
2016-Feb-13 00:00S 52°30' W 056°18'16 8.1 995.3 7.4 6.2
2016-Feb-12 22:00S 52°42' W 056°00'9 9.4 995.9 7.4 5.2
2016-Feb-12 21:00S 52°48' W 055°48'4013.4 995.7 7.6 4.5
2016-Feb-12 18:00S 53°24' W 055°18'13212.0 994.7 6.4 3.5
2016-Feb-12 07:00S 55°18' W 053°24'9 9.1 981.7 4.4 2.4
2016-Feb-12 06:00S 55°24' W 053°12'1413.8 981.7 4.0 2.4
2016-Feb-12 05:00S 55°36' W 053°00'9 9.0 981.7 3.9 2.3
2016-Feb-12 04:00S 55°42' W 052°48'2120.6 981.7 3.7 2.5
2016-Feb-12 03:00S 56°00' W 052°30'22 7.5 270 / 14981.5 5.4 1.5 3.8 3.8 4.0
2016-Feb-12 00:00S 56°18' W 052°06'1413.7 982.4 3.0 2.4
2016-Feb-11 23:00S 56°30' W 051°54'2713.7 982.7 3.1 2.6
2016-Feb-11 21:00S 56°54' W 051°30'2010.2 982.4 3.2 2.6
2016-Feb-11 19:00S 57°12' W 051°12'1413.6 982.8 2.0 1.0
2016-Feb-11 18:00S 57°24' W 051°00'3913.1 984.0 2.0-0.4
2016-Feb-11 15:00S 58°00' W 050°30'   985.9 1.0-3.2
Track history (hours):
 
Tides and Currents Weather Stations Pressure Air Temp Water Temp Dewpoint Dewpoint Depression Visibility Wind Speed Wind Dir Waves Ship Positions

Oceanographic research ship Ernest Shackleton (UK/Norway)

Detailed information on ship capabilities available from University of Delaware's Ocean Information Center and ARCUS's ALIAS (Arctic Logistics Information and Support) project.

Last reported at 2016-Feb-13 13:00 UTC. Time now 2016-Feb-13 15:16 UTC.
Position S 51°36' W 057°54'.

Length 80 m; beam 17 m; draft 7.4 m.

Type: Ship. MMSI: 740357000.

AWS

Barometer 982.0 mb
Air temperature 3.7 ° C
Dewpoint 1.9 ° C

Date/timePositionNaut miles runAvg speedWind from/ knotsBaromVisibWave heightAir tempDewpointWater temp
2016-Feb-13 13:00S 51°36' W 057°54'0 0.0 982.0 3.7 1.9
2016-Feb-13 12:00S 51°36' W 057°54'4 3.7 982.5 4.1 2.3
2016-Feb-13 11:00S 51°36' W 057°48'10 9.6 983.1 5.4 3.7
2016-Feb-13 10:00S 51°42' W 057°36'7 7.1 983.7 5.4 4.0
2016-Feb-13 09:00S 51°48' W 057°30'14 7.1 985.7 5.2 3.3
2016-Feb-13 07:00S 52°00' W 057°18'7 7.4 989.8 7.7 6.3
2016-Feb-13 06:00S 52°00' W 057°06'23 7.8 991.9 7.4 4.2
2016-Feb-13 03:00S 52°18' W 056°42'7 7.0 050 / 7994.310.8 1.0 7.8 5.7 7.1
2016-Feb-13 02:00S 52°24' W 056°36'13 6.3 994.9 7.9 5.9
2016-Feb-13 00:00S 52°30' W 056°18'16 8.1 995.3 7.4 6.2
2016-Feb-12 22:00S 52°42' W 056°00'9 9.4 995.9 7.4 5.2
2016-Feb-12 21:00S 52°48' W 055°48'4013.4 995.7 7.6 4.5
2016-Feb-12 18:00S 53°24' W 055°18'13212.0 994.7 6.4 3.5
2016-Feb-12 07:00S 55°18' W 053°24'9 9.1 981.7 4.4 2.4
2016-Feb-12 06:00S 55°24' W 053°12'1413.8 981.7 4.0 2.4
2016-Feb-12 05:00S 55°36' W 053°00'9 9.0 981.7 3.9 2.3
2016-Feb-12 04:00S 55°42' W 052°48'2120.6 981.7 3.7 2.5
2016-Feb-12 03:00S 56°00' W 052°30'22 7.5 270 / 14981.5 5.4 1.5 3.8 3.8 4.0
2016-Feb-12 00:00S 56°18' W 052°06'1413.7 982.4 3.0 2.4
2016-Feb-11 23:00S 56°30' W 051°54'2713.7 982.7 3.1 2.6
2016-Feb-11 21:00S 56°54' W 051°30'2010.2 982.4 3.2 2.6
2016-Feb-11 19:00S 57°12' W 051°12'1413.6 982.8 2.0 1.0
2016-Feb-11 18:00S 57°24' W 051°00'3913.1 984.0 2.0-0.4
2016-Feb-11 15:00S 58°00' W 050°30'   985.9 1.0-3.2

Dump ship's entire track history